Location: Brati?a
(46.1333°N, 22.7833°E)
Time: 22:53:40
(UTC+00:00)

Daily predictions for brighter satellites

Satellite Brightness Start Highest point End
(mag) Time Altitude Azimuth Time Altitude Azimuth Time Altitude Azimuth
NOSS 2-3 (C) 4.1 15:50:36 10° S 15:54:17 36° ESE 15:58:27 10° NE
Cosmos 1953 2.3 15:50:57 10° S 15:55:00 82° E 15:59:05 10° N
CORIOLIS 4.2 15:53:21 10° SSE 15:58:42 87° ENE 16:04:05 10° NNW
Lacrosse 4 Rocket 2.0 15:56:40 10° NNW 16:00:44 39° NE 16:04:52 10° ESE
SL-16 R/B 2.5 15:56:50 10° S 16:02:14 47° ESE 16:07:40 10° NE
Cosmos 2251 Rocket 4.3 15:58:25 10° N 16:03:00 29° ENE 16:07:33 10° ESE
CZ-2C R/B 4.1 15:57:18 10° S 16:03:02 59° W 16:08:39 10° NNW
Cosmos 1821 Rocket 4.1 15:56:40 10° S 16:03:04 88° E 16:09:27 10° N
Cosmos 1544 Rocket 4.0 16:01:38 10° SSE 16:05:50 43° E 16:10:04 10° NNE
NOSS 2 (A) 4.2 16:03:12 10° NNW 16:05:58 59° NE 16:08:23 10° SE
Cosmos 1300 3.1 16:03:21 10° SSE 16:06:55 40° E 16:10:30 10° NNE
SL-19 R/B 4.4 16:01:34 10° NNE 16:07:05 52° ESE 16:12:30 10° S
BREEZE M DEB (TANK) 4.5 16:07:31 10° W 16:11:35 65° S 16:37:09 10° ESE
Meteor 1-16 Rocket 4.5 16:06:17 10° SSW 16:12:09 81° WNW 16:17:55 10° N
Cosmos 1934 Rocket 4.0 16:06:25 10° S 16:12:21 57° E 16:18:16 10° NNE
Cosmos 2322 Rocket 2.5 16:08:30 10° S 16:13:46 44° ESE 16:19:05 10° NE
Cosmos 2219 Rocket 3.9 16:17:52 10° ESE 16:19:32 12° E 16:19:32 12° E
Iridium 4 Rocket 3.4 16:17:18 10° N 16:21:59 61° E 16:27:05 10° SSE
deb Chang Zheng 4 3.4 16:18:02 10° SSE 16:22:14 82° ENE 16:26:29 10° NNW
Cosmos 2360 Rocket 2.9 16:17:56 10° SSE 16:22:52 32° ESE 16:27:49 10° NE
Cosmos 614 Rocket 4.3 16:18:18 10° N 16:23:08 42° ENE 16:27:59 10° SE
Cosmos 304 Rocket 4.0 16:18:54 10° S 16:23:29 48° ESE 16:28:07 10° NNE
Cosmos 1844 4.4 16:18:31 10° NNW 16:23:49 35° NE 16:29:03 10° ESE
Okean O Rocket 1.6 16:20:37 10° SSE 16:24:52 58° ENE 16:29:10 10° N
NOSS 8 (E) 4.4 16:21:32 10° SW 16:24:57 72° NW 16:27:56 10° NE
Cosmos 839 Rocket 4.2 16:18:14 10° NNW 16:25:59 72° NE 16:32:21 10° SE
CZ-4C R/B 3.6 16:23:01 10° NNE 16:26:03 31° E 16:28:58 10° SSE
ARGOS 3.3 16:22:28 10° SE 16:27:42 53° ENE 16:32:59 10° N
Cosmos 2344 4.3 16:19:17 10° NW 16:28:07 64° NE 16:40:24 10° SE
CZ-4 R/B 2.3 16:27:01 10° SE 16:30:30 29° ENE 16:34:05 10° N
Cosmos 1602 Rocket 3.8 16:26:52 10° N 16:31:02 43° ENE 16:35:09 10° SSE
Meteor 1-4 Rocket 2.8 16:28:41 10° SSE 16:31:59 41° E 16:35:15 10° NNE
Cosmos 2333 Rocket 3.4 16:29:24 10° SE 16:33:20 20° E 16:35:06 17° ENE
Cosmos 405 Rocket 4.4 16:31:58 10° NNW 16:35:43 39° W 16:39:29 10° SSW
FALCON 9 DEB 4.4 16:33:59 10° S 16:36:11 19° SE 16:36:30 19° SE
COSMO-SKYMED 1 2.5 16:33:20 10° NNE 16:37:41 71° ESE 16:42:00 10° S
CZ-4B R/B 3.4 16:33:02 10° SSE 16:38:43 84° WSW 16:44:25 10° NNW
Cosmos 2263 Rocket 3.8 16:35:18 10° NW 16:40:23 37° WSW 16:45:27 10° S
In-Cosmos 22 Rocket 4.2 16:36:23 10° N 16:41:33 50° ENE 16:46:43 10° SSE
Okean 1-7 Rocket 3.9 16:38:03 10° NNW 16:42:27 69° W 16:46:53 10° S
Cosmos 2123 Rocket 4.2 16:36:31 10° N 16:42:52 81° W 16:49:09 10° S
USA 215 3.6 16:36:50 10° NE 16:43:16 62° NNW 16:49:42 10° WSW
NOSS 2-3 (E) 3.6 16:40:24 10° SW 16:44:26 78° NW 16:49:06 10° NE
SL-8 R/B 3.8 16:39:46 10° W 16:44:32 67° N 16:47:27 23° ENE
Feng Yun 1-1 Rocket 4.3 16:39:06 10° SSE 16:44:35 60° ENE 16:50:16 10° N
Spot 2 4.1 16:41:59 10° SSE 16:46:05 55° ENE 16:50:25 10° N
Cosmos 1980 Rocket 4.1 16:42:22 10° WSW 16:47:11 28° NW 16:52:03 10° N
Cosmos 332 Rocket 3.7 16:42:44 10° SSW 16:47:38 82° ESE 16:52:32 10° NNE
CZ-2C R/B 2.6 16:42:12 10° NNE 16:47:48 74° ESE 16:53:16 10° S
USA 229 DEB 3.6 16:43:16 10° SSW 16:49:32 65° ESE 16:56:10 10° NE
USA 229 3.6 16:43:23 10° SSW 16:49:38 64° ESE 16:56:14 10° NE
Okean-O 3.5 16:48:59 25° E 16:50:01 28° ENE 16:53:48 10° N
Meteor 1-11 4.4 16:44:35 10° NNW 16:50:12 76° W 16:55:51 10° S
Cosmos 1825 Rocket 4.2 16:49:23 10° N 16:53:17 31° ENE 16:54:06 29° E
OE (NEXTSAT) 4.2 16:50:47 10° W 16:54:13 83° S 16:55:18 41° E
H-2A R/B 2.4 16:51:41 10° SSE 16:55:54 65° ENE 16:59:59 10° N
Cosmos 2228 3.4 16:55:12 10° SSE 16:59:18 40° E 17:03:26 10° NNE
CSL-04 Rocket 4.4 16:57:22 25° ESE 16:59:29 33° ENE 17:04:25 10° N
Cosmos 1892 2.5 16:56:25 10° N 17:00:10 63° E 17:03:53 10° SSE
Cosmos 1758 Rocket 3.5 16:56:27 10° N 17:00:43 58° ENE 17:05:01 10° SSE
FALCON 9 DEB 3.6 17:00:26 10° SSW 17:02:45 35° SSE 17:02:45 35° SSE
ATLAS 3B R/B 4.5 16:59:57 10° WNW 17:05:08 23° NNW 17:10:30 10° NNE
Cosmos 1626 Rocket 4.2 17:01:12 10° NNW 17:05:26 56° W 17:09:40 10° S
Cosmos 1408 2.3 17:03:56 10° N 17:07:32 69° E 17:09:17 27° SSE
Cosmos 2100 Rocket 4.4 17:02:11 10° SSE 17:07:57 40° E 17:13:48 10° NNE
Cosmos 220 Rocket 4.0 17:05:40 10° SSW 17:10:06 82° WNW 17:14:31 10° NNE
H-2A R/B 3.4 17:05:03 10° S 17:10:12 44° W 17:15:25 10° NNW
Meteor 2-10 Rocket 3.6 17:05:55 10° S 17:11:28 86° W 17:16:49 10° N
SL-08 RB Rocket 3.7 17:07:10 10° SSE 17:11:44 88° W 17:16:23 10° NNW
NOSS 3-1 (A) 3.2 17:06:42 10° SW 17:12:00 90° NW 17:17:05 16° NE
Cosmos 1844 Rocket 2.6 17:07:08 10° NNW 17:12:44 88° ENE 17:17:53 12° SSE
X-37B 2.6 17:13:33 10° W 17:16:33 26° SSW 17:17:40 22° S
USA 267 4.0 17:11:30 10° SSE 17:17:48 50° SW 17:24:07 10° WNW
Cosmos 2173 Rocket 4.2 17:12:44 10° SSE 17:18:32 44° E 17:24:27 10° NNE
HJ-1C 3.6 17:19:13 57° N 17:19:13 57° N 17:21:54 10° N
Cosmos 2237 4.4 17:14:28 10° SSW 17:20:11 74° WNW 17:25:58 10° NNE
DMSP B5D2-2 4.0 17:17:24 10° NNE 17:22:39 66° ESE 17:27:49 10° S
CENTAUR R/B 4.2 17:16:32 10° NW 17:22:51 27° NNE 17:25:49 22° NE
MOS 1-B Rocket 4.5 17:19:09 10° N 17:25:35 63° WNW 17:31:15 10° SSW
Tiangong 3.0 17:25:42 10° WSW 17:28:03 24° SSW 17:28:03 24° SSW
YAOGAN 1 2.8 17:24:46 10° S 17:29:05 69° WSW 17:33:24 10° NNW
H-2A R/B 1.9 17:30:43 66° SE 17:30:43 66° SE 17:34:32 10° S
BREEZE-M R/B 2.7 17:28:21 10° WNW 17:31:45 78° SSW 17:32:42 53° SE
Cosmos 1455 4.0 17:30:30 10° S 17:31:46 20° S 17:31:46 20° S
NOSS 3-1 (C) 4.3 17:30:59 10° WSW 17:36:09 43° NW 17:41:23 14° NNE
COSMOS 2428 4.0 17:32:21 10° S 17:34:44 24° SSE 17:34:44 24° SSE
ATLAS 5 CENTAUR R/B 4.1 17:35:26 10° NW 17:37:45 14° NNW 17:40:15 10° NNE
Cosmos 44 3.9 17:32:29 10° SW 17:37:52 63° NW 17:40:55 25° NNE
Lacrosse 4 Rocket 3.6 17:35:38 10° NW 17:39:15 26° WSW 17:42:52 10° SSW
Cosmos 2278 Rocket 3.4 17:34:45 10° N 17:38:37 27° NNE 17:38:37 27° NNE
Cosmos 1140 Rocket 3.3 17:35:01 10° NNW 17:40:15 81° ENE 17:41:11 60° SE
Cosmos 1606 Rocket 3.8 17:36:36 10° S 17:45:48 - N 17:40:12 58° S
Cosmos 407 Rocket 3.4 17:36:46 10° NNW 17:42:08 87° ENE 17:43:30 52° SSE
Cosmos 1825 3.4 17:39:20 10° N 17:41:33 34° NNW 17:41:33 34° NNW
Cosmos 2333 4.0 17:38:14 10° SSW 17:43:50 79° ESE 17:45:49 42° NE
SL-16 R/B 3.9 17:41:31 10° WSW 17:46:32 32° NW 17:51:35 10° N
Cosmos 1023 Rocket 4.5 17:45:47 10° NNW 17:51:01 80° WSW 17:51:59 59° S
Cosmos 2322 Rocket 3.7 17:52:56 10° WSW 17:57:57 33° NW 18:03:02 10° NNE
Cosmos 2219 Rocket 2.5 17:57:06 10° SSW 18:01:21 54° S 18:01:21 54° S
CZ-4 R/B 3.5 18:02:01 10° SSW 18:05:27 27° W 18:08:58 10° NW
Cosmos 2360 Rocket 3.2 18:01:19 10° SW 18:06:42 44° NW 18:11:27 13° NNE
MetOp-A 4.5 18:05:21 39° SSW 18:07:14 62° WSW 18:12:34 10° NNW
Cosmos 2346 Rocket 4.5 18:07:16 10° N 18:13:33 80° W 18:14:41 62° SSW
Cosmos 2333 Rocket 2.4 18:11:21 10° SW 18:17:00 69° WNW 18:17:13 68° NW
USA 215 4.3 18:24:02 32° NNE 18:25:37 36° N 18:31:28 10° WNW
Okean-O 4.2 18:26:34 32° W 18:26:34 32° W 18:30:24 10° NNW
Cosmos 1943 Rocket 4.4 18:28:01 10° N 18:29:08 14° N 18:29:08 14° N
CENTAUR R/B 3.7 19:07:15 10° NW 19:12:59 48° N 19:12:59 48° N
Cosmos 2278 Rocket 4.3 19:18:32 10° NW 19:20:28 22° NW 19:20:28 22° NW
